Tracking 19245 objects as of 18-Aug-2018
HD Live streaming from Space Station
objects crossing your sky now

CAPE 1

Track CAPE 1 now!
10-day predictions
CAPE 1 is classified as:


NORAD ID: 31130
Int'l Code: 2007-012P
Perigee: 644.7 km
Apogee: 779.7 km
Inclination: 98.1 °
Period: 98.9 minutes
Semi major axis: 7083 km
RCS: 0.0406 m2 (small)
Launch date: April 17, 2007
Source: United States (US)
Launch site: TYURATAM MISSILE AND SPACE COMPLEX (TTMTR)
Uplink (MHz):
Downlink (MHz): 435.245
Beacon (MHz): 435.248
Mode: 1200bps AFSK
Call sign: K5USL
Status: Inactive

aabbcc
Your satellite tracking list
Your tracking list is empty




NASA's NSSDC Master Catalog

Two Line Element Set (TLE):
1 31130U 07012P   18229.38061073  .00000118  00000-0  35677-4 0  9990
2 31130  98.1266 171.4971 0095316 316.6367  42.7359 14.56318128601273
Source of the keplerian elements: AFSPC